Find USA 55

NORAD ID: 20547 Int'l Des: 1990-028 Owner: DARPA/USN Country: US operational
LEOCIRCULARRETROGRADE

当前视图

正在加载3D地球...

关于 USA 55

正在加载描述...

即将过境

Passes for default location (London). Set your location on the main map for personalized predictions.

高度历史

Loading altitude history...

两行轨道根数

1 20547U 90028B 26146.45674051 .00005051 00000-0 10612-3 0 9992
2 20547 94.0863 131.2158 0053868 215.0115 144.7595 15.43875185998532
Epoch: May 26, 2026 • Age: 9 hours

当前状态

高度 455.8 km
速度 7.64 km/s
星下点 -58.90°S, 46.8°W
发射日期 Apr 5, 1990
运行时间 36.1 years
类型 military

技术详情

分类 Payload
质量 68.00 kg
干质量 68.00 kg
总质量 68.00 kg
长度 0.40 m
直径 0.40 m
跨度 0.40 m
形状 Poly
制造商 DSI
平台类型 GLOMR
阶段状态 In Orbit
所有者/国家 DARPA/USN/US

Most Searched